1528956000.15,1688,18.75,73444.0,2.67,2.35,2.43,0,*48
1528956001.38,1689,18.75,73440.0,2.67,2.35,2.43,0,*49
1528956002.6,1690,18.75,73444.5,2.67,2.31,2.43,0,*45
1528956003.79,1691,18.75,73446.5,2.67,2.35,2.31,0,*45
1528956005.02,1692,18.75,73444.8,2.69,2.31,2.25,0,*49
1528956006.21,1693,18.75,73442.0,2.67,2.31,2.31,0,*43
1528956007.42,1694,18.75,73440.8,2.67,2.25,2.31,0,*41
1528956008.67,1695,18.75,73438.8,2.69,2.43,2.47,0,*4F
1528956009.92,1696,18.75,73438.0,2.67,2.43,2.43,0,*46
1528956011.15,1697,18.75,73434.0,2.67,2.35,2.43,0,*46
1528956012.4,1698,18.75,73426.5,2.67,2.43,2.43,0,*48
1528956013.65,1699,18.75,73436.0,2.69,2.43,2.47,0,*43
1528956014.87,1700,18.75,73434.8,2.67,2.25,2.35,0,*49
1528956016.11,1701,18.75,73434.5,2.67,2.13,2.09,0,*42
1528956017.36,1702,18.75,73432.3,2.67,2.13,2.13,0,*4A
1528956018.6,1703,18.75,73430.3,2.67,2.25,2.21,0,*4F
1528956019.85,1704,18.75,73442.3,2.67,2.01,2.09,0,*44
1528956021.1,1705,18.75,73448.0,2.67,2.01,2.09,0,*45
1528956022.31,1706,18.75,73446.8,2.65,2.09,2.21,0,*46
1528956023.56,1707,18.75,73442.3,2.67,2.25,2.25,0,*4F
1528956024.76,1708,18.75,73442.0,2.67,2.31,2.35,0,*44
1528956025.95,1709,18.75,73432.8,2.67,2.35,2.35,0,*41
1528956027.14,1710,18.75,73440.3,2.67,2.35,2.31,0,*4D
1528956028.33,1711,18.75,73438.5,2.67,2.35,2.31,0,*4C
1528956029.55,1712,18.75,73442.0,2.67,2.35,2.43,0,*4A
1528956030.78,1713,18.75,73444.0,2.69,2.35,2.43,0,*45
1528956031.97,1714,18.75,73438.8,2.67,2.31,2.35,0,*49
1528956033.16,1715,18.75,73434.3,2.67,2.35,2.35,0,*4C
1528956034.4,1716,18.75,73434.3,2.67,2.25,2.21,0,*4B
1528956035.65,1717,18.75,73436.3,2.67,2.21,2.25,0,*4A
1528956036.89,1718,18.75,73436.5,2.67,2.25,2.25,0,*41
1528956038.11,1719,18.75,73436.3,2.67,2.25,2.31,0,*45
1528956039.28,1720,18.75,73436.3,2.65,2.27,2.27,0,*48
1528956040.49,1721,18.75,73440.5,2.65,2.21,2.21,0,*49
1528956041.68,1722,18.75,73436.0,2.67,2.31,2.31,0,*48
1528956042.88,1723,18.75,73442.3,2.67,2.31,2.31,0,*49
1528956044.09,1724,18.75,73444.8,2.67,2.25,2.31,0,*4B
1528956045.31,1725,18.75,73452.3,2.67,2.25,2.31,0,*4A
1528956046.55,1726,18.75,73452.3,2.67,2.13,2.21,0,*4D
1528956047.79,1727,18.75,73450.0,2.67,2.25,2.25,0,*4D
1528956049.04,1728,18.75,73446.0,2.67,2.25,2.25,0,*42
1528956050.23,1729,18.75,73446.3,2.67,2.31,2.35,0,*47
1528956051.46,1730,18.75,73442.5,2.67,2.35,2.43,0,*4A
1528956052.7,1731,18.75,73442.8,2.67,2.43,2.47,0,*4E
1528956053.95,1732,18.69,73440.8,2.67,2.47,2.47,0,*49
1528956055.2,1733,18.75,73446.0,2.69,2.43,2.55,0,*41
1528956056.43,1734,18.75,73444.3,2.69,2.35,2.43,0,*40
1528956057.65,1735,18.75,73448.5,2.67,2.35,2.43,0,*4F
1528956058.85,1736,18.75,73450.5,2.69,2.31,2.35,0,*47
1528956060.07,1737,18.75,73454.5,2.67,2.35,2.43,0,*4D
1528956061.29,1738,18.75,73454.5,2.67,2.35,2.43,0,*42
1528956062.48,1739,18.69,73452.3,2.67,2.35,2.31,0,*46
1528956063.7,1740,18.75,73450.8,2.69,2.25,2.35,0,*43
1528956064.95,1741,18.75,73448.3,2.67,2.09,2.09,0,*4D
1528956066.19,1742,18.75,73444.0,2.67,1.93,1.93,0,*4E
1528956067.44,1743,18.75,73442.5,2.67,2.09,2.09,0,*4F
1528956068.68,1744,18.75,73444.8,2.67,2.01,1.97,0,*44
1528956069.93,1745,18.75,73450.0,2.67,1.97,2.01,0,*45
1528956071.18,1746,18.75,73440.8,2.67,2.09,2.13,0,*41
1528956072.42,1747,18.75,73440.8,2.69,2.21,2.25,0,*41
1528956073.66,1748,18.75,73440.5,2.67,2.25,2.21,0,*40
1528956074.86,1749,18.75,73446.5,2.67,2.35,2.35,0,*45
1528956076.11,1750,18.75,73438.0,2.67,2.43,2.43,0,*4D
1528956077.36,1751,18.75,73430.8,2.67,2.43,2.43,0,*4C
1528956078.58,1752,18.75,73438.0,2.65,2.39,2.39,0,*4D
1528956079.81,1753,18.75,73436.3,2.65,2.39,2.39,0,*4C
1528956081.0,1754,18.75,73446.8,2.67,2.31,2.31,0,*49
1528956082.22,1755,18.69,73444.8,2.67,2.25,2.31,0,*4D
1528956083.46,1756,18.75,73442.8,2.67,1.97,1.97,0,*4B
1528956084.69,1757,18.75,73440.8,2.67,1.85,1.83,0,*4C
1528956085.88,1758,18.75,73436.5,2.67,1.83,1.83,0,*45
1528956087.13,1759,18.75,73432.0,2.67,1.85,1.93,0,*43
1528956088.37,1760,18.75,73442.0,2.67,2.01,2.01,0,*4E
1528956089.59,1761,18.75,73446.5,2.65,1.93,1.97,0,*49
1528956090.84,1762,18.75,73450.8,2.63,2.01,2.01,0,*48
1528956092.07,1763,18.75,73442.3,2.65,2.17,2.17,0,*4F
1528956093.29,1764,18.75,73436.3,2.65,2.21,2.17,0,*4D
1528956094.53,1765,18.75,73446.3,2.63,1.93,1.93,0,*4F
1528956095.77,1766,18.75,73446.5,2.63,2.01,2.01,0,*4C
1528956097.01,1767,18.75,73444.3,2.63,1.89,1.93,0,*46
1528956098.21,1768,18.75,73452.0,2.63,1.51,1.41,0,*43
1528956099.47,1769,18.69,73446.8,2.63,1.29,1.21,0,*4B
1528956100.72,1770,18.75,73442.5,2.59,1.25,1.33,0,*45
1528956101.97,1771,18.75,73440.0,2.59,1.29,1.37,0,*4C
1528956103.19,1772,18.75,73432.3,2.59,1.47,1.41,0,*46
1528956104.42,1773,18.75,73432.0,2.59,1.59,1.59,0,*41
1528956105.62,1774,18.75,73420.3,2.59,1.83,1.83,0,*46
1528956106.82,1775,18.75,73420.3,2.59,1.83,1.83,0,*47
1528956108.04,1776,18.75,73424.8,2.59,1.83,1.85,0,*42
1528956109.28,1777,18.75,73428.3,2.59,1.89,1.85,0,*49
1528956110.53,1778,18.75,73426.5,2.59,1.97,2.01,0,*46
1528956111.78,1779,18.75,73434.0,2.59,2.09,2.01,0,*43
1528956112.99,1780,18.75,73432.0,2.57,2.01,1.97,0,*4F
1528956114.21,1781,18.69,73426.5,2.57,1.97,1.97,0,*42
1528956115.44,1782,18.75,73428.8,2.57,1.85,1.85,0,*41
1528956116.65,1783,18.75,73428.8,2.57,1.89,1.89,0,*40
1528956117.87,1784,18.75,73434.8,2.57,1.89,1.85,0,*4B
1528956119.09,1785,18.75,73430.3,2.57,1.97,1.97,0,*46
1528956120.34,1786,18.75,73432.8,2.59,1.97,2.01,0,*47
1528956121.58,1787,18.75,73432.5,2.59,1.97,1.97,0,*4A
1528956122.8,1788,18.69,73436.3,2.57,2.09,2.01,0,*43
1528956124.03,1789,18.75,73442.5,2.57,2.13,2.13,0,*4A
1528956125.24,1790,18.75,73436.0,2.57,1.89,1.97,0,*4D
1528956126.46,1791,18.75,73436.8,2.57,2.09,2.09,0,*43
1528956127.68,1792,18.75,73436.5,2.57,2.09,2.09,0,*40
1528956128.9,1793,18.69,73434.0,2.57,2.13,2.09,0,*4A
1528956130.12,1794,18.75,73434.0,2.57,2.09,2.13,0,*4D
1528956131.34,1795,18.75,73438.3,2.57,2.21,2.13,0,*46
1528956132.57,1796,18.75,73434.0,2.57,2.13,2.13,0,*44
1528956133.79,1797,18.75,73438.3,2.57,2.21,2.13,0,*44
1528956135.01,1798,18.75,73438.3,2.57,2.01,2.09,0,*42
1528956136.23,1799,18.75,73432.0,2.57,2.09,2.13,0,*40
1528956137.45,1800,18.69,73430.0,2.57,2.01,2.01,0,*44
1528956138.67,1801,18.69,73436.8,2.57,1.97,2.01,0,*49
1528956139.89,1802,18.69,73432.8,2.57,1.89,1.97,0,*49
1528956141.11,1803,18.69,73430.3,2.57,1.97,1.97,0,*47
1528956142.32,1804,18.75,73428.5,2.57,1.89,1.97,0,*4F
1528956143.54,1805,18.69,73428.3,2.57,2.01,2.01,0,*41
1528956144.76,1806,18.69,73428.3,2.57,1.97,1.97,0,*42
1528956145.98,1807,18.75,73436.5,2.57,2.01,2.01,0,*43
1528956147.23,1808,18.75,73436.5,2.59,2.01,2.13,0,*41
1528956148.47,1809,18.75,73442.8,2.59,1.89,1.97,0,*4C
1528956149.72,1810,18.75,73442.3,2.59,1.85,1.85,0,*4B
1528956150.93,1811,18.69,73440.8,2.57,1.89,1.97,0,*4B
1528956152.16,1812,18.75,73442.0,2.57,1.97,2.01,0,*4B
1528956153.38,1813,18.75,73442.3,2.57,2.09,2.09,0,*46
1528956154.59,1814,18.75,73436.8,2.57,2.25,2.21,0,*45
1528956155.81,1815,18.75,73448.5,2.57,2.21,2.25,0,*44
1528956156.98,1816,18.75,73448.5,2.57,2.31,2.35,0,*47
1528956158.22,1817,18.75,73448.8,2.59,2.21,2.21,0,*4C
1528956159.47,1818,18.75,73442.5,2.59,1.85,1.85,0,*43
1528956160.72,1819,18.75,73436.3,2.59,1.63,1.63,0,*42
1528956161.93,1820,18.69,73416.8,2.57,1.63,1.63,0,*46
1528956163.15,1821,18.75,73416.0,2.53,1.67,1.71,0,*44
1528956164.38,1822,18.75,73416.8,2.53,1.85,1.85,0,*40
1528956165.6,1823,18.75,73416.0,2.53,1.85,1.93,0,*46
1528956166.82,1824,18.75,73422.3,2.57,1.97,1.97,0,*42
1528956168.04,1825,18.75,73416.0,2.53,1.93,1.93,0,*47
1528956169.26,1826,18.75,73414.5,2.57,1.89,1.85,0,*4C
1528956170.47,1827,18.69,73416.3,2.57,1.89,1.89,0,*41
1528956171.69,1828,18.75,73432.8,2.53,2.05,2.09,0,*46
1528956172.91,1829,18.75,73430.8,2.57,1.97,2.01,0,*43
1528956174.14,1830,18.69,73424.3,2.53,1.85,1.93,0,*44
1528956175.36,1831,18.75,73432.8,2.57,1.93,2.13,0,*4D
1528956176.58,1832,18.75,73430.0,2.57,2.01,2.09,0,*4D
1528956177.8,1833,18.75,73426.3,2.57,2.01,1.97,0,*48
1528956179.02,1834,18.75,73432.3,2.57,2.01,2.09,0,*4B
1528956180.24,1835,18.69,73434.0,2.53,2.09,2.09,0,*46
1528956181.46,1836,18.75,73434.3,2.57,2.09,2.21,0,*4B
1528956182.68,1837,18.75,73436.0,2.57,2.13,2.01,0,*43
1528956183.9,1838,18.69,73426.5,2.57,2.09,2.13,0,*44
1528956185.13,1839,18.69,73432.0,2.57,2.13,2.13,0,*4E
1528956186.34,1840,18.75,73436.3,2.57,2.21,2.25,0,*44
1528956187.57,1841,18.75,73432.3,2.53,1.97,2.09,0,*41
1528956188.78,1842,18.75,73436.0,2.53,2.21,2.21,0,*46
1528956189.95,1843,18.75,73436.8,2.57,2.31,2.31,0,*43
1528956191.17,1844,18.75,73440.8,2.57,2.25,2.25,0,*44
1528956192.36,1845,18.75,73438.5,2.57,2.25,2.31,0,*40
1528956193.52,1846,18.75,73440.8,2.57,2.35,2.31,0,*42
1528956194.74,1847,18.75,73450.0,2.57,2.43,2.47,0,*43
1528956195.97,1848,18.69,73444.8,2.57,2.47,2.47,0,*48
1528956197.21,1849,18.75,73436.3,2.59,2.47,2.43,0,*43
1528956198.44,1850,18.69,73420.0,2.61,2.47,2.47,0,*44
1528956199.69,1851,18.75,73416.5,2.59,2.43,2.43,0,*4E
1528956200.91,1852,18.75,73422.5,2.61,2.47,2.47,0,*46
1528956202.07,1853,18.75,73426.8,2.61,2.35,2.35,0,*47
1528956203.27,1854,18.75,73426.3,2.61,2.35,2.39,0,*4C
1528956204.51,1855,18.75,73432.5,2.59,2.21,2.25,0,*4E
1528956205.76,1856,18.75,73438.5,2.59,2.25,2.13,0,*4C
1528956206.93,1857,18.75,73424.5,2.61,2.27,2.35,0,*40
1528956208.1,1858,18.75,73434.8,2.61,2.27,2.35,0,*4F
1528956209.26,1859,18.75,73432.3,2.61,2.27,2.35,0,*4E
1528956210.48,1860,18.75,73428.8,2.61,2.25,2.25,0,*47
1528956211.65,1861,18.75,73430.5,2.61,2.27,2.27,0,*46
1528956212.87,1862,18.75,73428.8,2.61,2.13,2.13,0,*45
1528956214.12,1863,18.75,73424.3,2.59,2.13,2.09,0,*44
1528956215.37,1864,18.75,73424.3,2.59,2.13,2.13,0,*48
1528956216.62,1865,18.69,73424.8,2.59,2.25,2.25,0,*49
1528956217.81,1866,18.75,73424.8,2.61,2.27,2.39,0,*4E
1528956218.98,1867,18.75,73428.5,2.61,2.27,2.35,0,*43
1528956220.15,1868,18.75,73436.5,2.61,2.27,2.35,0,*4C
1528956221.34,1869,18.69,73434.8,2.61,2.25,2.27,0,*4C
1528956222.56,1870,18.69,73438.5,2.61,2.25,2.25,0,*46
1528956223.78,1871,18.75,73440.5,2.61,2.17,2.25,0,*46
1528956224.98,1872,18.75,73438.5,2.61,2.25,2.27,0,*46
1528956226.15,1873,18.69,73434.5,2.61,2.27,2.35,0,*46
1528956227.38,1874,18.69,73420.8,2.59,2.21,2.21,0,*49
1528956228.6,1875,18.69,73422.3,2.61,2.25,2.25,0,*43
1528956229.79,1876,18.75,73428.0,2.61,2.25,2.27,0,*42
1528956230.96,1877,18.69,73426.0,2.61,2.27,2.27,0,*41
1528956232.13,1878,18.69,73430.0,2.61,2.27,2.27,0,*4E
1528956233.36,1879,18.75,73430.8,2.65,2.05,2.17,0,*48
1528956234.57,1880,18.75,73436.3,2.61,2.01,2.01,0,*49
1528956235.79,1881,18.75,73434.0,2.61,2.01,2.01,0,*48
1528956237.01,1882,18.69,73432.8,2.61,2.01,2.05,0,*4F
1528956238.26,1883,18.69,73430.8,2.59,2.01,2.01,0,*41
1528956239.49,1884,18.75,73430.0,2.61,2.17,2.17,0,*4D
1528956240.68,1885,18.75,73430.0,2.61,2.39,2.35,0,*40
1528956241.85,1886,18.75,73430.8,2.61,2.27,2.27,0,*4F
1528956243.05,1887,18.69,73430.8,2.61,2.17,2.27,0,*4D
1528956244.29,1888,18.75,73434.5,2.59,2.21,2.21,0,*4A
1528956245.51,1889,18.75,73430.3,2.61,2.25,2.25,0,*40
1528956246.73,1890,18.69,73426.8,2.61,2.25,2.25,0,*48
1528956247.95,1891,18.75,73424.8,2.61,2.17,2.13,0,*4D
1528956249.17,1892,18.69,73424.5,2.63,2.25,2.35,0,*49
1528956250.36,1893,18.75,73434.3,2.63,2.35,2.27,0,*4A
1528956251.55,1894,18.69,73436.5,2.63,2.35,2.27,0,*4D
1528956252.8,1895,18.69,73438.3,2.63,2.17,2.25,0,*4E
1528956253.99,1896,18.75,73442.5,2.63,2.27,2.35,0,*4F
1528956255.2,1897,18.75,73442.5,2.63,2.25,2.27,0,*4F
1528956256.44,1898,18.69,73432.5,2.63,2.05,2.05,0,*42
1528956257.69,1899,18.75,73436.8,2.63,2.01,2.05,0,*47
1528956258.93,1900,18.75,73436.5,2.63,2.25,2.25,0,*42
1528956260.15,1901,18.69,73426.3,2.63,2.35,2.39,0,*4F
1528956261.36,1902,18.75,73432.8,2.63,2.35,2.39,0,*4C
1528956262.58,1903,18.69,73436.5,2.63,2.27,2.25,0,*43
1528956263.83,1904,18.69,73436.0,2.63,2.39,2.39,0,*46
1528956265.07,1905,18.75,73442.3,2.63,2.47,2.47,0,*47
1528956266.32,1906,18.75,73438.5,2.63,2.39,2.47,0,*4D
1528956267.56,1907,18.69,73436.5,2.63,2.39,2.39,0,*45
1528956268.79,1908,18.75,73440.5,2.65,2.51,2.51,0,*4C
1528956269.97,1909,18.69,73434.8,2.65,2.31,2.27,0,*4A
1528956271.16,1910,18.69,73432.8,2.65,2.39,2.31,0,*4D
1528956272.35,1911,18.75,73436.0,2.63,2.35,2.35,0,*42
1528956273.54,1912,18.75,73444.3,2.65,2.39,2.31,0,*4F
1528956274.76,1913,18.75,73444.3,2.63,2.35,2.39,0,*4C
1528956276.01,1914,18.75,73440.5,2.63,2.39,2.39,0,*47
1528956277.18,1915,18.69,73436.0,2.65,2.31,2.27,0,*47
1528956278.43,1916,18.75,73438.3,2.63,2.17,2.17,0,*45
1528956279.68,1917,18.75,73440.0,2.63,2.17,2.17,0,*44
1528956280.87,1918,18.75,73438.8,2.63,2.35,2.27,0,*48
1528956282.12,1919,18.75,73438.8,2.63,2.51,2.47,0,*4D
1528956283.35,1920,18.69,73434.0,2.65,2.51,2.51,0,*46
1528956284.57,1921,18.69,73436.5,2.65,2.55,2.55,0,*47
1528956285.79,1922,18.75,73450.0,2.65,2.55,2.51,0,*40
1528956287.04,1923,18.75,73448.8,2.67,2.59,2.59,0,*47
1528956288.21,1924,18.69,73448.8,2.65,2.27,2.31,0,*45
1528956289.43,1925,18.75,73446.8,2.65,2.21,2.21,0,*43
1528956290.65,1926,18.69,73442.5,2.65,1.93,1.93,0,*40
1528956291.87,1927,18.69,73440.0,2.63,1.85,1.79,0,*44
1528956293.11,1928,18.75,73442.0,2.63,1.63,1.67,0,*4C
1528956294.28,1929,18.75,73440.8,2.65,1.83,1.79,0,*4A
1528956295.53,1930,18.69,73436.5,2.63,1.85,1.85,0,*41
1528956296.75,1931,18.69,73440.0,2.63,1.79,1.85,0,*43
1528956297.99,1932,18.69,73440.8,2.63,1.63,1.67,0,*47
1528956299.23,1933,18.75,73446.5,2.63,1.43,1.55,0,*45
1528956300.43,1934,18.75,73446.5,2.61,1.33,1.41,0,*42
1528956301.68,1935,18.69,73442.5,2.59,1.13,1.13,0,*4D
1528956302.92,1936,18.69,73438.0,2.59,0.87,0.87,0,*4E
1528956304.13,1937,18.69,73438.8,2.57,0.75,0.87,0,*4C
1528956305.34,1938,18.75,73440.0,2.53,0.75,0.87,0,*47
1528956306.55,1939,18.75,73436.3,2.53,0.75,0.83,0,*42
1528956307.76,1940,18.69,73434.0,2.49,0.67,0.71,0,*49
1528956308.97,1941,18.69,73434.5,2.49,0.79,0.79,0,*4F
1528956310.19,1942,18.75,73432.8,2.47,0.91,1.01,0,*7A
1528956311.39,1943,18.69,73428.5,2.47,1.01,1.01,0,*43
1528956312.64,1944,18.75,73428.5,2.47,1.17,1.13,0,*40
1528956313.89,1945,18.75,73422.5,2.47,1.29,1.29,0,*45
1528956315.11,1946,18.69,73410.3,2.45,1.51,1.59,0,*4C
1528956316.33,1947,18.75,73416.5,2.47,1.71,1.75,0,*43
1528956317.57,1948,18.69,73428.0,2.47,1.71,1.71,0,*48
1528956318.81,1949,18.69,73430.5,2.47,1.89,1.89,0,*49
1528956320.04,1950,18.69,73426.3,2.47,1.89,1.89,0,*41
1528956321.29,1951,18.69,73430.0,2.47,2.01,2.01,0,*40
1528956322.53,1952,18.69,73426.0,2.47,2.01,2.01,0,*43
1528956323.78,1953,18.75,73422.0,2.47,2.09,2.09,0,*42
1528956325.03,1954,18.69,73412.5,2.47,2.01,2.13,0,*46
1528956326.27,1955,18.69,73422.5,2.47,1.97,1.97,0,*44
1528956327.51,1956,18.75,73426.5,2.47,1.89,1.89,0,*47
1528956328.71,1957,18.75,73430.0,2.47,1.75,1.75,0,*46
1528956329.94,1958,18.75,73430.5,2.45,1.85,1.85,0,*4B
1528956331.18,1959,18.69,73434.5,2.47,1.97,1.97,0,*48
1528956332.44,1960,18.75,73432.5,2.47,1.85,1.85,0,*42
1528956333.66,1961,18.69,73430.8,2.47,1.75,1.63,0,*44
1528956334.9,1962,18.69,73430.5,2.47,1.59,1.51,0,*48
1528956336.14,1963,18.69,73434.8,2.47,1.51,1.47,0,*46
1528956337.35,1964,18.69,73438.0,2.47,1.41,1.47,0,*40
1528956338.54,1965,18.69,73440.8,2.47,1.41,1.41,0,*47
1528956339.76,1966,18.69,73436.5,2.45,1.59,1.63,0,*4F
1528956340.99,1967,18.75,73442.5,2.47,1.51,1.59,0,*4D
1528956342.21,1968,18.75,73442.0,2.45,1.51,1.51,0,*48
1528956343.46,1969,18.69,73434.5,2.47,1.17,1.17,0,*4B
1528956344.7,1970,18.69,73432.5,2.45,1.37,1.37,0,*41
1528956345.92,1971,18.69,73428.8,2.45,1.25,1.29,0,*4C
1528956347.09,1972,18.75,73434.3,2.45,1.05,1.05,0,*43
1528956348.35,1973,18.75,73436.8,2.43,1.21,1.25,0,*40
1528956349.6,1974,18.69,73436.5,2.43,1.47,1.47,0,*43
1528956350.8,1975,18.69,73444.8,2.43,1.75,1.75,0,*42
1528956352.01,1976,18.69,73446.3,2.41,1.85,1.83,0,*45
1528956353.26,1977,18.69,73444.3,2.43,1.71,1.67,0,*47
1528956354.51,1978,18.69,73444.0,2.43,1.55,1.47,0,*4C
1528956355.74,1979,18.69,73444.5,2.41,1.25,1.25,0,*4C
1528956356.98,1980,18.69,73444.5,2.41,1.13,1.13,0,*4A
1528956358.18,1981,18.69,73446.8,2.41,1.01,1.09,0,*43
1528956359.41,1982,18.69,73442.8,2.39,0.95,0.95,0,*47
1528956360.64,1983,18.69,73442.3,2.37,0.91,0.83,0,*4B
1528956361.83,1984,18.69,73436.8,2.39,1.05,0.97,0,*7B
1528956363.06,1985,18.69,73436.8,2.37,1.13,1.13,0,*4E
1528956364.24,1986,18.69,73438.3,2.37,1.05,1.05,0,*4D
1528956365.47,1987,18.69,73436.3,2.37,1.13,1.13,0,*4C
1528956366.7,1988,18.69,73442.0,2.35,1.37,1.37,0,*41
1528956367.95,1989,18.69,73442.0,2.39,1.51,1.55,0,*48
1528956369.18,1990,18.75,73440.3,2.37,1.29,1.37,0,*45
1528956370.39,1991,18.69,73428.3,2.37,1.37,1.41,0,*4A
1528956371.6,1992,18.69,73424.8,2.37,1.59,1.59,0,*48
1528956372.78,1993,18.69,73430.0,2.37,1.75,1.79,0,*45
1528956374.0,1994,18.69,73426.5,2.37,1.97,1.89,0,*41
1528956375.23,1995,18.69,73422.5,2.37,2.01,2.01,0,*4F
1528956376.46,1996,18.69,73432.0,2.37,1.97,2.09,0,*48
1528956377.71,1997,18.69,73434.3,2.39,2.05,2.05,0,*43
1528956378.93,1998,18.69,73432.0,2.37,2.01,1.97,0,*4E
1528956380.18,1999,18.69,73430.8,2.39,2.13,2.13,0,*4D
1528956381.43,2000,18.69,73432.0,2.39,2.13,2.09,0,*4C
1528956382.68,2001,18.69,73432.3,2.39,2.17,2.13,0,*42
1528956383.93,2002,18.69,73442.8,2.39,2.13,2.05,0,*42
1528956385.18,2003,18.69,73440.8,2.39,2.13,2.13,0,*44
1528956386.36,2004,18.69,73436.5,2.41,2.27,2.27,0,*4C
1528956387.59,2005,18.69,73438.5,2.41,2.17,2.17,0,*4D
1528956388.85,2006,18.69,73434.3,2.43,2.17,2.09,0,*43
1528956390.11,2007,18.75,73440.5,2.43,2.17,2.17,0,*4D
1528956391.29,2008,18.69,73440.8,2.41,2.31,2.31,0,*40
1528956392.49,2009,18.69,73438.0,2.43,2.31,2.31,0,*43
1528956393.74,2010,18.69,73440.0,2.43,2.17,2.21,0,*4E
1528956395.0,2011,18.69,73436.5,2.43,2.17,2.21,0,*4F
1528956396.21,2012,18.69,73436.8,2.43,2.21,2.31,0,*48
1528956397.39,2013,18.69,73440.0,2.45,2.31,2.35,0,*4A
1528956398.61,2014,18.69,73440.3,2.45,2.13,2.13,0,*49
1528956399.84,2015,18.69,73444.8,2.45,2.13,2.25,0,*4D
1528956401.06,2016,18.69,73440.8,2.45,2.25,2.25,0,*4B
1528956402.28,2017,18.75,73442.5,2.45,2.25,2.25,0,*4A
1528956403.48,2018,18.69,73440.3,2.45,2.31,2.25,0,*40
1528956404.72,2019,18.69,73444.5,2.47,2.13,2.21,0,*47
1528956405.97,2020,18.69,73442.0,2.47,2.25,2.25,0,*4C
1528956407.15,2021,18.69,73434.8,2.47,2.35,2.31,0,*49
1528956408.38,2022,18.69,73434.8,2.47,2.31,2.25,0,*4B
1528956409.6,2023,18.69,73434.5,2.47,2.31,2.25,0,*4A
1528956410.79,2024,18.69,73438.3,2.47,2.35,2.31,0,*4C
1528956412.03,2025,18.75,73442.3,2.47,2.21,2.25,0,*4D
1528956413.25,2026,18.69,73442.5,2.47,2.25,2.31,0,*4F
1528956414.46,2027,18.69,73438.8,2.47,2.25,2.31,0,*4E
1528956415.7,2028,18.69,73434.5,2.47,2.13,2.21,0,*45
1528956416.9,2029,18.69,73436.3,2.51,2.27,2.27,0,*42
1528956418.07,2030,18.69,73436.0,2.49,2.27,2.35,0,*40
1528956419.25,2031,18.69,73440.5,2.49,2.27,2.35,0,*41
1528956420.42,2032,18.69,73440.8,2.49,2.35,2.35,0,*41
1528956421.61,2033,18.69,73440.8,2.51,2.27,2.35,0,*4A
1528956422.81,2034,18.69,73438.3,2.49,2.39,2.35,0,*4B
1528956423.98,2035,18.69,73440.5,2.49,2.35,2.35,0,*46
1528956425.15,2036,18.69,73438.3,2.49,2.27,2.35,0,*46
1528956426.35,2037,18.69,73436.0,2.51,2.35,2.27,0,*4E
1528956427.57,2038,18.69,73436.5,2.51,2.35,2.39,0,*4E
1528956428.76,2039,18.69,73438.0,2.51,2.35,2.35,0,*43
1528956429.93,2040,18.69,73432.5,2.53,2.31,2.31,0,*4F
1528956431.16,2041,18.69,73430.5,2.53,2.39,2.43,0,*43
1528956432.38,2042,18.75,73428.5,2.53,2.43,2.43,0,*4D
1528956433.61,2043,18.69,73428.5,2.53,2.43,2.43,0,*4C
1528956434.84,2044,18.69,73436.8,2.53,2.43,2.43,0,*4B
1528956436.06,2045,18.69,73446.8,2.53,2.39,2.39,0,*4A
1528956437.29,2046,18.69,73428.5,2.53,2.21,2.17,0,*4C
1528956438.51,2047,18.69,73430.8,2.53,2.21,2.17,0,*4D
1528956439.68,2048,18.69,73434.8,2.57,2.31,2.27,0,*44
1528956440.87,2049,18.75,73436.0,2.53,2.25,2.27,0,*44
1528956442.04,2050,18.69,73438.8,2.53,2.31,2.31,0,*4E
1528956443.21,2051,18.69,73438.0,2.57,2.31,2.31,0,*4B
1528956444.42,2052,18.69,73436.8,2.57,2.21,2.25,0,*4C
1528956445.59,2053,18.69,73444.0,2.57,2.31,2.35,0,*4D
1528956446.76,2054,18.69,73442.5,2.53,2.31,2.31,0,*4A
1528956447.99,2055,18.69,73440.3,2.57,2.43,2.43,0,*4F
1528956449.21,2056,18.69,73442.8,2.57,2.43,2.43,0,*4C
1528956450.43,2057,18.69,73442.0,2.57,2.47,2.47,0,*4D
1528956451.66,2058,18.69,73442.5,2.57,2.43,2.43,0,*42
1528956452.88,2059,18.69,73442.3,2.57,2.47,2.47,0,*43
1528956454.13,2060,18.69,73442.0,2.59,2.47,2.47,0,*47
1528956455.38,2061,18.69,73438.3,2.59,2.47,2.43,0,*42
1528956456.62,2062,18.69,73442.5,2.59,2.47,2.47,0,*45
1528956457.87,2063,18.69,73434.8,2.59,2.47,2.47,0,*44
1528956459.12,2064,18.69,73432.5,2.59,2.47,2.47,0,*43
1528956460.37,2065,18.69,73438.8,2.59,2.47,2.47,0,*42
1528956461.62,2066,18.69,73434.8,2.59,2.43,2.43,0,*41
1528956462.78,2067,18.69,73438.0,2.61,2.27,2.35,0,*48
1528956463.98,2068,18.69,73436.8,2.61,2.25,2.35,0,*45
1528956465.17,2069,18.69,73434.8,2.59,2.31,2.31,0,*4E
1528956466.39,2070,18.69,73436.8,2.61,2.25,2.25,0,*4D
1528956467.63,2071,18.69,73434.0,2.59,2.21,2.21,0,*47
1528956468.87,2072,18.69,73430.8,2.59,2.25,2.21,0,*40
1528956470.12,2073,18.69,73434.0,2.59,2.13,2.13,0,*45
1528956471.31,2074,18.69,73428.0,2.61,2.27,2.39,0,*46
1528956472.51,2075,18.69,73420.3,2.59,2.31,2.31,0,*43
1528956473.7,2076,18.69,73424.3,2.61,2.17,2.27,0,*48
1528956474.93,2077,18.69,73424.3,2.61,2.13,2.17,0,*4E
1528956476.17,2078,18.69,73426.3,2.59,2.13,2.25,0,*4B
1528956477.41,2079,18.69,73428.8,2.59,2.21,2.21,0,*4F
1528956478.65,2080,18.69,73428.0,2.59,2.21,2.21,0,*49
1528956479.87,2081,18.69,73428.8,2.61,2.25,2.25,0,*43
1528956481.08,2082,18.69,73432.3,2.59,2.21,2.31,0,*4A
1528956482.3,2083,18.69,73434.8,2.59,2.25,2.31,0,*4F
1528956483.46,2084,18.69,73430.5,2.61,2.35,2.35,0,*46
1528956484.69,2085,18.69,73434.8,2.61,2.13,2.13,0,*47
1528956485.92,2086,18.69,73436.0,2.61,2.17,2.17,0,*44
1528956487.08,2087,18.69,73432.0,2.61,2.27,2.27,0,*45
1528956488.25,2088,18.75,73436.8,2.61,2.35,2.27,0,*49
1528956489.47,2089,18.69,73432.5,2.59,2.25,2.31,0,*45
1528956490.66,2090,18.69,73442.8,2.61,2.25,2.35,0,*42
1528956491.85,2091,18.69,73442.0,2.59,2.31,2.35,0,*4D
1528956493.05,2092,18.69,73434.3,2.61,2.35,2.39,0,*4D
1528956494.27,2093,18.69,73434.0,2.61,2.39,2.39,0,*40
1528956495.46,2094,18.69,73436.8,2.59,2.35,2.35,0,*4C
1528956496.65,2095,18.69,73440.0,2.61,2.25,2.27,0,*44
1528956497.9,2096,18.69,73436.5,2.59,2.25,2.25,0,*4E
1528956499.07,2097,18.69,73436.0,2.61,2.27,2.35,0,*47
1528956500.29,2098,18.69,73436.0,2.61,2.39,2.47,0,*42
1528956501.51,2099,18.69,73436.8,2.61,2.39,2.47,0,*43
1528956502.7,2100,18.69,73440.0,2.61,2.35,2.47,0,*4E
1528956503.92,2101,18.69,73442.8,2.61,2.39,2.47,0,*43
1528956505.14,2102,18.69,73444.8,2.61,2.39,2.47,0,*40
1528956506.39,2103,18.69,73440.0,2.63,2.47,2.51,0,*4D
1528956507.64,2104,18.69,73448.0,2.63,2.39,2.39,0,*4D
1528956508.89,2105,18.69,73438.8,2.63,2.17,2.25,0,*4D
1528956510.12,2106,18.69,73434.3,2.61,2.17,2.17,0,*4D
1528956511.34,2107,18.69,73434.0,2.61,2.17,2.25,0,*4D
1528956512.56,2108,18.69,73436.5,2.63,2.17,2.27,0,*42
1528956513.75,2109,18.69,73438.0,2.63,2.27,2.27,0,*40
1528956514.97,2110,18.69,73436.0,2.61,2.39,2.47,0,*43
1528956516.2,2111,18.69,73438.8,2.61,2.39,2.39,0,*4B
1528956517.42,2112,18.69,73434.8,2.61,2.47,2.51,0,*4F
1528956518.65,2113,18.69,73444.5,2.65,2.51,2.51,0,*4D
1528956519.84,2114,18.69,73446.5,2.63,2.35,2.35,0,*4C
1528956521.04,2115,18.69,73444.8,2.63,2.27,2.35,0,*4E
1528956522.27,2116,18.69,73442.5,2.61,2.17,2.17,0,*4C
1528956523.51,2117,18.69,73442.8,2.63,2.13,2.17,0,*4B
1528956524.76,2118,18.69,73438.0,2.63,2.17,2.25,0,*41
1528956526.01,2119,18.69,73442.8,2.63,2.17,2.17,0,*41
1528956527.2,2120,18.69,73436.0,2.63,2.27,2.27,0,*4B
1528956528.43,2121,18.69,73434.8,2.65,2.43,2.51,0,*4F
1528956529.65,2122,18.69,73442.5,2.63,2.35,2.39,0,*45
1528956530.89,2123,18.69,73438.5,2.63,2.25,2.25,0,*48
1528956532.09,2124,18.69,73442.8,2.63,2.27,2.27,0,*4F
1528956533.33,2125,18.69,73446.0,2.63,2.25,2.25,0,*4E
1528956534.52,2126,18.69,73440.8,2.63,2.35,2.27,0,*4E
1528956535.76,2127,18.69,73440.3,2.63,2.39,2.47,0,*45
1528956536.98,2128,18.69,73442.8,2.65,2.39,2.47,0,*4C
1528956538.23,2129,18.69,73440.0,2.63,2.39,2.47,0,*4B
1528956539.46,2130,18.69,73440.8,2.65,2.43,2.51,0,*4F
1528956540.68,2131,18.69,73444.3,2.63,2.35,2.39,0,*47
1528956541.9,2132,18.69,73442.0,2.65,2.39,2.43,0,*43